Check out our new BloomSky Weather System.

Active alerts

Fort Bend, TX
  Details for Fort Bend, TX Special Weather Statement


Thunder radar  blitzortung!


Rain radar more information rain snow radar


Visit our other weather sites:

Template documentation
and downloads

And another site



Weather Underground History page Text

Daily Summary for March 20, 2017 Units:  Metric    English   Both
« Previous Day
Next Day »
Daily Weekly Monthly Yearly Custom
  High: Low: Average:
Temperature: -17.8 °C 19.5 °C 23.5 °C
Dew Point: -17.8 °C 13.5 °C 17.9 °C
Humidity: Humidity % 42 % 74 %
Wind Speed: 0 km/h 0 km/h 6 km/h
Wind Gust: 0 km/h - -
Wind:- - South
Pressure: 0 hPa 1017.8 hPa -
Precipitation: 0 mm    
Historical Graphs
 
 
Tabular Data for March 20, 2017
Time Temperature Dew Point Pressure Wind Wind Speed Wind Gust Humidity Rainfall Rate (Hourly)
-17.8 °C -17.8 °C 0 hPa Calm     Humidity % 0 mm
00:00 20.8 °C 19.5 °C 1022.2 hPa South 6.4 km/h 11.3 km/h 92 % 0 mm
00:05 20.7 °C 19.4 °C 1022.2 hPa SSW 12.9 km/h 12.9 km/h 92 % 0 mm
00:10 20.7 °C 19.4 °C 1022.2 hPa SSW 4.8 km/h 12.9 km/h 92 % 0 mm
00:15 20.6 °C 19.4 °C 1022.2 hPa South 6.4 km/h 12.9 km/h 93 % 0 mm
00:20 20.5 °C 19.3 °C 1022.2 hPa SE 6.4 km/h 12.9 km/h 93 % 0 mm
00:21 20.5 °C 19.3 °C 1022.2 hPa SSE 6.4 km/h 12.9 km/h 93 % 0 mm
00:26 20.5 °C 19.3 °C 1022.2 hPa SSE 3.2 km/h 9.7 km/h 93 % 0 mm
00:31 20.5 °C 19.3 °C 1022.2 hPa SSE 4.8 km/h 9.7 km/h 93 % 0 mm
00:36 20.4 °C 19.4 °C 1021.9 hPa SSE 4.8 km/h 9.7 km/h 94 % 0 mm
00:41 20.4 °C 19.4 °C 1021.9 hPa SSE 3.2 km/h 9.7 km/h 94 % 0 mm
00:46 20.5 °C 19.5 °C 1021.9 hPa SE 1.6 km/h 9.7 km/h 94 % 0 mm
00:51 20.6 °C 19.6 °C 1021.9 hPa South 6.4 km/h 9.7 km/h 94 % 0 mm
00:56 20.6 °C 19.6 °C 1021.9 hPa SE 4.8 km/h 9.7 km/h 94 % 0 mm
01:01 20.6 °C 19.6 °C 1021.9 hPa ESE 3.2 km/h 9.7 km/h 94 % 0 mm
01:06 20.6 °C 19.6 °C 1021.9 hPa SSW 3.2 km/h 9.7 km/h 94 % 0 mm
01:08 20.6 °C 19.6 °C 1021.9 hPa SE 3.2 km/h 9.7 km/h 94 % 0 mm
01:13 20.7 °C 19.7 °C 1021.9 hPa SE 4.8 km/h 9.7 km/h 94 % 0 mm
01:18 20.7 °C 19.7 °C 1021.9 hPa West 9.7 km/h 9.7 km/h 94 % 0 mm
01:23 20.7 °C 19.7 °C 1021.9 hPa ESE 1.6 km/h 11.3 km/h 94 % 0 mm
01:28 20.7 °C 19.7 °C 1021.9 hPa SE 4.8 km/h 14.5 km/h 94 % 0 mm
01:33 20.7 °C 19.7 °C 1021.9 hPa South 9.7 km/h 19.3 km/h 94 % 0 mm
01:38 20.8 °C 19.6 °C 1021.9 hPa SSW 4.8 km/h 19.3 km/h 93 % 0 mm
01:43 20.7 °C 19.5 °C 1021.6 hPa SSW 9.7 km/h 19.3 km/h 93 % 0 mm
01:48 20.7 °C 19.5 °C 1021.6 hPa South 4.8 km/h 20.9 km/h 93 % 0 mm
01:53 20.7 °C 19.5 °C 1021.6 hPa SW 14.5 km/h 20.9 km/h 93 % 0 mm
01:58 20.6 °C 19.4 °C 1021.6 hPa SSE 4.8 km/h 20.9 km/h 93 % 0 mm
02:03 20.6 °C 19.6 °C 1021.6 hPa SE 6.4 km/h 14.5 km/h 94 % 0 mm
02:08 20.6 °C 19.6 °C 1021.6 hPa SSW 9.7 km/h 14.5 km/h 94 % 0 mm
02:13 20.6 °C 19.6 °C 1021.6 hPa SSW 3.2 km/h 14.5 km/h 94 % 0 mm
02:18 20.6 °C 19.6 °C 1021.6 hPa South 9.7 km/h 12.9 km/h 94 % 0 mm
02:23 20.6 °C 19.6 °C 1021.6 hPa SSW 1.6 km/h 12.9 km/h 94 % 0 mm
02:28 20.4 °C 19.4 °C 1021.6 hPa SSW 1.6 km/h 12.9 km/h 94 % 0 mm
02:33 20.4 °C 19.4 °C 1021.6 hPa South 9.7 km/h 11.3 km/h 94 % 0 mm
02:38 20.4 °C 19.4 °C 1021.6 hPa SSE 8 km/h 11.3 km/h 94 % 0 mm
02:43 20.3 °C 19.3 °C 1021.2 hPa SSE 3.2 km/h 11.3 km/h 94 % 0 mm
02:48 20.3 °C 19.3 °C 1021.2 hPa SSE 3.2 km/h 11.3 km/h 94 % 0 mm
02:53 20.2 °C 19.2 °C 1021.2 hPa SSE 3.2 km/h 11.3 km/h 94 % 0 mm
02:58 20.2 °C 19.4 °C 1021.2 hPa South 3.2 km/h 9.7 km/h 95 % 0 mm
03:03 20.2 °C 19.4 °C 1021.2 hPa SSW 6.4 km/h 9.7 km/h 95 % 0 mm
03:09 20.2 °C 19.4 °C 1021.2 hPa South 4.8 km/h 9.7 km/h 95 % 0 mm
03:14 20.2 °C 19.4 °C 1021.2 hPa SSW 1.6 km/h 9.7 km/h 95 % 0 mm
03:19 20.2 °C 19.4 °C 1021.2 hPa SSW 6.4 km/h 9.7 km/h 95 % 0 mm
03:24 20.2 °C 19.4 °C 1020.9 hPa SSW 1.6 km/h 6.4 km/h 95 % 0 mm
03:29 20.2 °C 19.4 °C 1020.9 hPa SSE 3.2 km/h 6.4 km/h 95 % 0 mm
03:34 20.2 °C 19.4 °C 1020.9 hPa Calm   6.4 km/h 95 % 0 mm
03:39 20.2 °C 19.4 °C 1020.9 hPa SSE 6.4 km/h 8 km/h 95 % 0 mm
03:44 20.3 °C 19.5 °C 1020.9 hPa SSW 3.2 km/h 9.7 km/h 95 % 0 mm
03:49 20.3 °C 19.5 °C 1020.5 hPa South 1.6 km/h 9.7 km/h 95 % 0 mm
03:54 20.3 °C 19.5 °C 1020.5 hPa SSE 6.4 km/h 9.7 km/h 95 % 0 mm
03:59 20.4 °C 19.6 °C 1020.5 hPa South 3.2 km/h 12.9 km/h 95 % 0 mm
04:04 20.4 °C 19.6 °C 1020.5 hPa SW 8 km/h 14.5 km/h 95 % 0 mm
04:09 20.5 °C 19.5 °C 1020.5 hPa South 3.2 km/h 14.5 km/h 94 % 0 mm
04:14 20.6 °C 19.6 °C 1020.5 hPa South 9.7 km/h 16.1 km/h 94 % 0 mm
04:19 20.6 °C 19.6 °C 1020.5 hPa South 3.2 km/h 16.1 km/h 94 % 0 mm
04:24 20.6 °C 19.6 °C 1020.5 hPa SSW 4.8 km/h 16.1 km/h 94 % 0 mm
04:29 20.6 °C 19.6 °C 1020.5 hPa South 8 km/h 14.5 km/h 94 % 0 mm
04:34 20.6 °C 19.6 °C 1020.5 hPa South 9.7 km/h 16.1 km/h 94 % 0 mm
04:39 20.6 °C 19.6 °C 1020.5 hPa SSW 4.8 km/h 16.1 km/h 94 % 0 mm
04:44 20.6 °C 19.6 °C 1020.5 hPa SSW 6.4 km/h 16.1 km/h 94 % 0 mm
04:49 20.6 °C 19.6 °C 1020.5 hPa SSE 8 km/h 11.3 km/h 94 % 0 mm
04:54 20.6 °C 19.6 °C 1020.5 hPa SSE 4.8 km/h 11.3 km/h 94 % 0 mm
04:59 20.6 °C 19.6 °C 1020.5 hPa SSW 6.4 km/h 14.5 km/h 94 % 0 mm
05:04 20.6 °C 19.6 °C 1020.5 hPa SSW 8 km/h 14.5 km/h 94 % 0 mm
05:09 20.6 °C 19.6 °C 1020.5 hPa SSE 4.8 km/h 14.5 km/h 94 % 0 mm
05:14 20.5 °C 19.5 °C 1020.5 hPa SSE 4.8 km/h 14.5 km/h 94 % 0 mm
05:19 20.4 °C 19.4 °C 1020.5 hPa SSE 12.9 km/h 14.5 km/h 94 % 0 mm
05:24 20.4 °C 19.4 °C 1020.5 hPa South 3.2 km/h 17.7 km/h 94 % 0 mm
05:29 20.4 °C 19.4 °C 1020.5 hPa SW 6.4 km/h 19.3 km/h 94 % 0 mm
05:34 20.3 °C 19.3 °C 1020.5 hPa SSE 4.8 km/h 19.3 km/h 94 % 0 mm
05:39 20.2 °C 19.2 °C 1020.5 hPa SSW 1.6 km/h 19.3 km/h 94 % 0 mm
05:44 20.2 °C 19.2 °C 1020.5 hPa SSE 3.2 km/h 14.5 km/h 94 % 0 mm
05:49 20.1 °C 19.1 °C 1020.5 hPa SE 4.8 km/h 8 km/h 94 % 0 mm
05:54 20.1 °C 19.1 °C 1020.5 hPa SSW 4.8 km/h 6.4 km/h 94 % 0 mm
05:59 20 °C 19 °C 1020.5 hPa South 3.2 km/h 8 km/h 94 % 0 mm
06:04 19.9 °C 19.1 °C 1020.5 hPa South 6.4 km/h 8 km/h 95 % 0 mm
06:09 19.9 °C 19.1 °C 1020.5 hPa SSE 3.2 km/h 9.7 km/h 95 % 0 mm
06:14 19.9 °C 19.1 °C 1020.5 hPa SSW 1.6 km/h 11.3 km/h 95 % 0 mm
06:15 19.9 °C 19.1 °C 1020.5 hPa SSW 3.2 km/h 11.3 km/h 95 % 0 mm
06:20 19.9 °C 19.1 °C 1020.5 hPa SW 3.2 km/h 11.3 km/h 95 % 0 mm
06:25 19.9 °C 19.1 °C 1020.5 hPa South 4.8 km/h 11.3 km/h 95 % 0 mm
06:30 19.9 °C 19.1 °C 1020.5 hPa SSE 8 km/h 8 km/h 95 % 0 mm
06:35 19.9 °C 19.1 °C 1020.5 hPa SSW 8 km/h 11.3 km/h 95 % 0 mm
06:40 19.9 °C 19.1 °C 1020.9 hPa SSE 6.4 km/h 11.3 km/h 95 % 0 mm
06:45 19.9 °C 19.1 °C 1020.9 hPa South 3.2 km/h 11.3 km/h 95 % 0 mm
06:50 19.8 °C 19 °C 1020.9 hPa South 1.6 km/h 11.3 km/h 95 % 0 mm
06:55 19.8 °C 19.1 °C 1020.9 hPa SSE 1.6 km/h 9.7 km/h 96 % 0 mm
07:00 19.8 °C 19.1 °C 1020.9 hPa South 1.6 km/h 8 km/h 96 % 0 mm
07:05 19.7 °C 19 °C 1020.9 hPa SSE 1.6 km/h 8 km/h 96 % 0 mm
07:10 19.7 °C 19 °C 1020.9 hPa Calm   8 km/h 96 % 0 mm
07:15 19.7 °C 19 °C 1020.9 hPa SSE 1.6 km/h 4.8 km/h 96 % 0 mm
07:20 19.6 °C 18.9 °C 1021.2 hPa SE 3.2 km/h 4.8 km/h 96 % 0 mm
07:25 19.6 °C 18.9 °C 1021.2 hPa South 1.6 km/h 4.8 km/h 96 % 0 mm
07:30 19.6 °C 18.9 °C 1021.2 hPa SSE 3.2 km/h 4.8 km/h 96 % 0 mm
07:35 19.5 °C 18.8 °C 1021.2 hPa SSW 1.6 km/h 4.8 km/h 96 % 0 mm
07:40 19.5 °C 18.8 °C 1021.2 hPa ESE 1.6 km/h 4.8 km/h 96 % 0 mm
07:41 19.5 °C 18.8 °C 1021.2 hPa South 3.2 km/h 4.8 km/h 96 % 0 mm
07:46 19.5 °C 18.8 °C 1021.2 hPa South 1.6 km/h 4.8 km/h 96 % 0 mm
07:51 19.5 °C 18.8 °C 1021.6 hPa SSW 3.2 km/h 4.8 km/h 96 % 0 mm
07:56 19.5 °C 18.8 °C 1021.6 hPa Calm   4.8 km/h 96 % 0 mm
08:01 19.5 °C 19 °C 1021.6 hPa South 1.6 km/h 4.8 km/h 97 % 0 mm
08:06 19.6 °C 19.1 °C 1021.6 hPa SSW 4.8 km/h 4.8 km/h 97 % 0 mm
08:11 19.7 °C 19.2 °C 1021.6 hPa SSE 1.6 km/h 4.8 km/h 97 % 0 mm
08:16 19.8 °C 19.3 °C 1021.6 hPa SSW 3.2 km/h 4.8 km/h 97 % 0 mm
08:21 19.8 °C 19.3 °C 1021.6 hPa SW 4.8 km/h 4.8 km/h 97 % 0 mm
08:26 20 °C 19.5 °C 1021.6 hPa SSW 3.2 km/h 6.4 km/h 97 % 0 mm
08:31 20.3 °C 19.8 °C 1021.6 hPa SSW 3.2 km/h 6.4 km/h 97 % 0 mm
08:36 20.4 °C 19.7 °C 1021.6 hPa SSW 4.8 km/h 8 km/h 96 % 0 mm
08:41 20.4 °C 19.7 °C 1021.9 hPa ESE 4.8 km/h 8 km/h 96 % 0 mm
08:46 20.6 °C 19.9 °C 1021.9 hPa ESE 4.8 km/h 11.3 km/h 96 % 0 mm
08:51 20.7 °C 20 °C 1021.9 hPa South 3.2 km/h 12.9 km/h 96 % 0 mm
08:56 20.7 °C 19.9 °C 1021.9 hPa SSW 4.8 km/h 12.9 km/h 95 % 0 mm
09:01 20.7 °C 19.9 °C 1021.9 hPa SE 3.2 km/h 12.9 km/h 95 % 0 mm
09:06 20.8 °C 20 °C 1021.9 hPa South 4.8 km/h 9.7 km/h 95 % 0 mm
09:11 21.2 °C 20.2 °C 1021.9 hPa SSW 8 km/h 9.7 km/h 94 % 0 mm
09:16 21.5 °C 20.3 °C 1021.9 hPa SSE 9.7 km/h 22.5 km/h 93 % 0 mm
09:21 22 °C 20.6 °C 1021.9 hPa SE 4.8 km/h 22.5 km/h 92 % 0 mm
09:26 22.2 °C 20.5 °C 1022.2 hPa South 8 km/h 22.5 km/h 90 % 0 mm
09:31 22.1 °C 20 °C 1022.2 hPa SSW 8 km/h 19.3 km/h 88 % 0 mm
09:36 22 °C 19.9 °C 1022.2 hPa SSE 3.2 km/h 19.3 km/h 88 % 0 mm
09:41 22 °C 19.9 °C 1022.2 hPa SW 1.6 km/h 19.3 km/h 88 % 0 mm
09:46 22 °C 19.9 °C 1022.2 hPa SSW 3.2 km/h 17.7 km/h 88 % 0 mm
09:51 22.2 °C 19.9 °C 1022.2 hPa South 6.4 km/h 17.7 km/h 87 % 0 mm
09:56 22.5 °C 20.2 °C 1022.6 hPa SSW 3.2 km/h 17.7 km/h 87 % 0 mm
10:02 22.8 °C 20.1 °C 1022.6 hPa SSW 8 km/h 17.7 km/h 85 % 0 mm
10:07 23.2 °C 20.2 °C 1022.6 hPa South 11.3 km/h 19.3 km/h 83 % 0 mm
10:12 23.4 °C 20 °C 1022.6 hPa SSW 16.1 km/h 19.3 km/h 81 % 0 mm
10:17 23.6 °C 19.9 °C 1022.6 hPa SSE 3.2 km/h 22.5 km/h 80 % 0 mm
10:22 23.4 °C 19.3 °C 1022.6 hPa SSW 14.5 km/h 24.1 km/h 78 % 0 mm
10:27 23.2 °C 19.1 °C 1022.6 hPa SSW 9.7 km/h 24.1 km/h 78 % 0 mm
10:32 22.9 °C 19.1 °C 1022.6 hPa South 12.9 km/h 24.1 km/h 79 % 0 mm
10:37 22.8 °C 19 °C 1022.6 hPa SSW 6.4 km/h 22.5 km/h 79 % 0 mm
10:42 23.2 °C 19.8 °C 1022.6 hPa South 6.4 km/h 19.3 km/h 81 % 0 mm
10:47 23.5 °C 19 °C 1022.6 hPa SW 12.9 km/h 19.3 km/h 76 % 0 mm
10:52 23.6 °C 19.1 °C 1022.6 hPa SSW 4.8 km/h 17.7 km/h 76 % 0 mm
10:57 23.9 °C 19.4 °C 1022.6 hPa WSW 3.2 km/h 17.7 km/h 76 % 0 mm
11:02 24.3 °C 19.6 °C 1022.6 hPa SSW 6.4 km/h 17.7 km/h 75 % 0 mm
11:07 24.7 °C 20 °C 1022.6 hPa South 8 km/h 17.7 km/h 75 % 0 mm
11:12 25.1 °C 19.7 °C 1022.6 hPa SW 9.7 km/h 17.7 km/h 72 % 0 mm
11:17 25.3 °C 19.4 °C 1022.6 hPa SSW 11.3 km/h 17.7 km/h 70 % 0 mm
11:22 25.2 °C 19.1 °C 1022.6 hPa SSE 9.7 km/h 20.9 km/h 69 % 0 mm
11:27 25.3 °C 19 °C 1022.6 hPa South 8 km/h 20.9 km/h 68 % 0 mm
11:32 25.3 °C 18.7 °C 1022.6 hPa SSW 9.7 km/h 20.9 km/h 67 % 0 mm
11:37 25.3 °C 19 °C 1022.2 hPa SW 12.9 km/h 20.9 km/h 68 % 0 mm
11:42 25.4 °C 18.3 °C 1022.2 hPa SW 4.8 km/h 20.9 km/h 65 % 0 mm
11:47 25.6 °C 19 °C 1022.2 hPa SSW 8 km/h 22.5 km/h 67 % 0 mm
11:52 26 °C 19.4 °C 1022.2 hPa SW 11.3 km/h 22.5 km/h 67 % 0 mm
11:57 25.9 °C 19.1 °C 1022.2 hPa West 3.2 km/h 22.5 km/h 66 % 0 mm
12:02 25.9 °C 18.6 °C 1022.2 hPa SE 11.3 km/h 17.7 km/h 64 % 0 mm
12:07 25.9 °C 19.1 °C 1022.2 hPa WSW 3.2 km/h 17.7 km/h 66 % 0 mm
12:12 26.1 °C 19.2 °C 1022.2 hPa SW 16.1 km/h 17.7 km/h 66 % 0 mm
12:17 26.2 °C 19.1 °C 1022.2 hPa NW 8 km/h 19.3 km/h 65 % 0 mm
12:22 26.3 °C 18.9 °C 1022.2 hPa SSE 8 km/h 19.3 km/h 64 % 0 mm
12:27 26.3 °C 18.9 °C 1021.9 hPa SW 9.7 km/h 19.3 km/h 64 % 0 mm
12:32 26.7 °C 19.3 °C 1021.9 hPa SE 8 km/h 19.3 km/h 64 % 0 mm
12:37 26.6 °C 18.5 °C 1021.9 hPa South 3.2 km/h 19.3 km/h 61 % 0 mm
12:42 26.8 °C 19.2 °C 1021.9 hPa SSW 9.7 km/h 16.1 km/h 63 % 0 mm
12:47 27.1 °C 18.1 °C 1021.9 hPa South 9.7 km/h 16.1 km/h 58 % 0 mm
12:52 27.2 °C 18.8 °C 1021.9 hPa West 3.2 km/h 17.7 km/h 60 % 0 mm
12:57 27.4 °C 19.2 °C 1021.9 hPa SW 12.9 km/h 17.7 km/h 61 % 0 mm
13:02 27.2 °C 17.9 °C 1021.6 hPa SSW 16.1 km/h 20.9 km/h 57 % 0 mm
13:07 27.2 °C 18.2 °C 1021.6 hPa South 4.8 km/h 20.9 km/h 58 % 0 mm
13:12 27.6 °C 18 °C 1021.6 hPa WSW 3.2 km/h 20.9 km/h 56 % 0 mm
13:17 27.7 °C 19 °C 1021.6 hPa South 6.4 km/h 20.9 km/h 59 % 0 mm
13:22 28 °C 18.7 °C 1021.2 hPa SSW 9.7 km/h 17.7 km/h 57 % 0 mm
13:27 27.9 °C 18.3 °C 1021.2 hPa SSE 9.7 km/h 17.7 km/h 56 % 0 mm
13:32 27.8 °C 17.6 °C 1021.2 hPa SSW 8 km/h 19.3 km/h 54 % 0 mm
13:37 27.7 °C 17.5 °C 1021.2 hPa SE 9.7 km/h 20.9 km/h 54 % 0 mm
13:42 27.8 °C 18.2 °C 1020.9 hPa WSW 12.9 km/h 22.5 km/h 56 % 0 mm
13:47 27.9 °C 17.4 °C 1020.9 hPa South 9.7 km/h 22.5 km/h 53 % 0 mm
13:52 28.2 °C 18.3 °C 1020.9 hPa SSW 8 km/h 22.5 km/h 55 % 0 mm
13:57 28.2 °C 18.6 °C 1020.9 hPa SSW 14.5 km/h 17.7 km/h 56 % 0 mm
14:02 28.2 °C 17.4 °C 1020.5 hPa ESE 24.1 km/h 24.1 km/h 52 % 0 mm
14:07 27.9 °C 18.3 °C 1020.5 hPa WNW 3.2 km/h 27.4 km/h 56 % 0 mm
14:12 28.2 °C 19.2 °C 1020.2 hPa SW 3.2 km/h 27.4 km/h 58 % 0 mm
14:17 28.6 °C 18.4 °C 1020.2 hPa SSW 9.7 km/h 27.4 km/h 54 % 0 mm
14:22 28.6 °C 18.1 °C 1020.2 hPa SE 11.3 km/h 17.7 km/h 53 % 0 mm
14:27 28.6 °C 17.8 °C 1020.2 hPa ESE 6.4 km/h 20.9 km/h 52 % 0 mm
14:32 28.6 °C 17.8 °C 1019.9 hPa SSE 11.3 km/h 20.9 km/h 52 % 0 mm
14:37 28.6 °C 18.1 °C 1019.9 hPa SE 8 km/h 20.9 km/h 53 % 0 mm
14:42 28.7 °C 17.2 °C 1019.9 hPa SE 8 km/h 19.3 km/h 50 % 0 mm
14:47 28.7 °C 18.5 °C 1019.9 hPa SSW 3.2 km/h 19.3 km/h 54 % 0 mm
14:52 28.9 °C 19 °C 1019.9 hPa SSE 9.7 km/h 19.3 km/h 55 % 0 mm
14:57 28.9 °C 17.4 °C 1019.9 hPa SSW 11.3 km/h 24.1 km/h 50 % 0 mm
15:02 28.9 °C 17.4 °C 1019.5 hPa SSW 4.8 km/h 24.1 km/h 50 % 0 mm
15:07 29 °C 17.5 °C 1019.5 hPa WSW 8 km/h 24.1 km/h 50 % 0 mm
15:12 29.3 °C 17.8 °C 1019.5 hPa WSW 14.5 km/h 20.9 km/h 50 % 0 mm
15:17 29.4 °C 17.6 °C 1019.5 hPa SSW 8 km/h 16.1 km/h 49 % 0 mm
15:22 29.3 °C 17.5 °C 1019.5 hPa South 12.9 km/h 16.1 km/h 49 % 0 mm
15:27 29.1 °C 16.3 °C 1019.2 hPa SSW 11.3 km/h 19.3 km/h 46 % 0 mm
15:33 29 °C 16.2 °C 1019.2 hPa SSW 8 km/h 19.3 km/h 46 % 0 mm
15:37 29 °C 16.5 °C 1019.2 hPa SW 14.5 km/h 19.3 km/h 47 % 0 mm
15:43 29 °C 16.9 °C 1019.2 hPa SSE 3.2 km/h 24.1 km/h 48 % 0 mm
15:48 29.2 °C 17.1 °C 1019.2 hPa NW 3.2 km/h 24.1 km/h 48 % 0 mm
15:53 29.4 °C 16.6 °C 1018.8 hPa SSE 4.8 km/h 24.1 km/h 46 % 0 mm
15:58 29.6 °C 17.1 °C 1018.8 hPa SSW 9.7 km/h 17.7 km/h 47 % 0 mm
16:03 29.7 °C 17.5 °C 1018.8 hPa SW 3.2 km/h 12.9 km/h 48 % 0 mm
16:08 29.5 °C 16.7 °C 1018.8 hPa SSE 4.8 km/h 16.1 km/h 46 % 0 mm
16:13 29.4 °C 16.2 °C 1018.8 hPa SW 4.8 km/h 16.1 km/h 45 % 0 mm
16:18 29.4 °C 16.6 °C 1018.8 hPa SSW 4.8 km/h 16.1 km/h 46 % 0 mm
16:23 29.5 °C 17 °C 1018.8 hPa SSW 8 km/h 16.1 km/h 47 % 0 mm
16:28 29.7 °C 16.5 °C 1018.5 hPa SSW 4.8 km/h 16.1 km/h 45 % 0 mm
16:33 29.7 °C 16.5 °C 1018.5 hPa South 8 km/h 16.1 km/h 45 % 0 mm
16:38 29.4 °C 15.9 °C 1018.5 hPa SW 1.6 km/h 20.9 km/h 44 % 0 mm
16:43 29.4 °C 15.9 °C 1018.5 hPa SSW 6.4 km/h 20.9 km/h 44 % 0 mm
16:48 29.6 °C 16.8 °C 1018.5 hPa South 8 km/h 20.9 km/h 46 % 0 mm
16:53 29.4 °C 16.2 °C 1018.2 hPa SSW 6.4 km/h 16.1 km/h 45 % 0 mm
16:58 29.4 °C 16.2 °C 1018.2 hPa SSW 1.6 km/h 16.1 km/h 45 % 0 mm
17:03 29.3 °C 15.8 °C 1018.2 hPa SSE 6.4 km/h 16.1 km/h 44 % 0 mm
17:08 29.3 °C 16.1 °C 1018.2 hPa SW 6.4 km/h 17.7 km/h 45 % 0 mm
17:13 29.3 °C 16.1 °C 1018.2 hPa ESE 9.7 km/h 17.7 km/h 45 % 0 mm
17:18 29.2 °C 16 °C 1018.2 hPa SSW 6.4 km/h 17.7 km/h 45 % 0 mm
17:23 29.1 °C 15.6 °C 1018.2 hPa South 14.5 km/h 19.3 km/h 44 % 0 mm
17:28 28.9 °C 15.8 °C 1018.2 hPa SW 9.7 km/h 19.3 km/h 45 % 0 mm
17:33 28.9 °C 16.1 °C 1017.8 hPa South 4.8 km/h 19.3 km/h 46 % 0 mm
17:38 28.9 °C 15.8 °C 1017.8 hPa SSW 6.4 km/h 17.7 km/h 45 % 0 mm
17:43 28.9 °C 15.4 °C 1017.8 hPa WSW 8 km/h 17.7 km/h 44 % 0 mm
17:48 28.8 °C 15.3 °C 1017.8 hPa South 6.4 km/h 17.7 km/h 44 % 0 mm
17:53 28.8 °C 15 °C 1017.8 hPa SSW 8 km/h 20.9 km/h 43 % 0 mm
17:58 28.8 °C 15 °C 1017.8 hPa SW 9.7 km/h 20.9 km/h 43 % 0 mm
18:03 28.8 °C 14.6 °C 1017.8 hPa SSW 6.4 km/h 20.9 km/h 42 % 0 mm
18:08 28.8 °C 14.6 °C 1017.8 hPa WSW 3.2 km/h 14.5 km/h 42 % 0 mm
18:13 28.9 °C 15.1 °C 1017.8 hPa SSW 3.2 km/h 14.5 km/h 43 % 0 mm
18:18 28.8 °C 15 °C 1017.8 hPa South 4.8 km/h 14.5 km/h 43 % 0 mm
18:23 28.7 °C 14.9 °C 1017.8 hPa SSW 4.8 km/h 11.3 km/h 43 % 0 mm
18:28 28.6 °C 14.8 °C 1017.8 hPa SSE 9.7 km/h 14.5 km/h 43 % 0 mm
18:33 28.4 °C 14.2 °C 1017.8 hPa SSW 14.5 km/h 16.1 km/h 42 % 0 mm
18:38 28.3 °C 14.5 °C 1017.8 hPa SSW 1.6 km/h 16.1 km/h 43 % 0 mm
18:43 28.2 °C 14.4 °C 1017.8 hPa SW 6.4 km/h 16.1 km/h 43 % 0 mm
18:48 28.2 °C 14.4 °C 1017.8 hPa SW 4.8 km/h 16.1 km/h 43 % 0 mm
18:53 28.1 °C 14.3 °C 1017.8 hPa SW 9.7 km/h 9.7 km/h 43 % 0 mm
18:58 27.9 °C 14.9 °C 1017.8 hPa SSW 6.4 km/h 12.9 km/h 45 % 0 mm
19:03 27.8 °C 14.8 °C 1017.8 hPa SSW 6.4 km/h 12.9 km/h 45 % 0 mm
19:08 27.6 °C 14.6 °C 1017.8 hPa SSW 4.8 km/h 12.9 km/h 45 % 0 mm
19:14 27.3 °C 14.3 °C 1017.8 hPa SSE 6.4 km/h 12.9 km/h 45 % 0 mm
19:19 27 °C 14.4 °C 1017.8 hPa South 1.6 km/h 12.9 km/h 46 % 0 mm
19:24 26.6 °C 14 °C 1017.8 hPa Calm   11.3 km/h 46 % 0 mm
19:29 26.4 °C 13.8 °C 1017.8 hPa SSW 3.2 km/h 11.3 km/h 46 % 0 mm
19:34 26.1 °C 13.9 °C 1017.8 hPa Calm   9.7 km/h 47 % 0 mm
19:39 25.8 °C 13.6 °C 1017.8 hPa South 1.6 km/h 9.7 km/h 47 % 0 mm
19:44 25.6 °C 13.5 °C 1017.8 hPa SSW 1.6 km/h 9.7 km/h 47 % 0 mm
19:49 25.4 °C 13.6 °C 1017.8 hPa SSW 1.6 km/h 6.4 km/h 48 % 0 mm
19:54 25.3 °C 13.8 °C 1017.8 hPa SSE 3.2 km/h 6.4 km/h 49 % 0 mm
19:59 25.1 °C 13.6 °C 1017.8 hPa South 1.6 km/h 6.4 km/h 49 % 0 mm
20:04 25 °C 13.5 °C 1017.8 hPa SSE 3.2 km/h 4.8 km/h 49 % 0 mm
20:09 24.9 °C 13.5 °C 1017.8 hPa SSW 3.2 km/h 4.8 km/h 49 % 0 mm
20:14 24.8 °C 13.7 °C 1018.2 hPa SSE 1.6 km/h 4.8 km/h 50 % 0 mm
20:19 24.6 °C 13.5 °C 1018.2 hPa SSE 3.2 km/h 4.8 km/h 50 % 0 mm
20:24 24.5 °C 13.7 °C 1018.2 hPa South 3.2 km/h 4.8 km/h 51 % 0 mm
20:30 24.4 °C 13.6 °C 1018.2 hPa South 1.6 km/h 8 km/h 51 % 0 mm
20:35 24.2 °C 13.7 °C 1018.2 hPa SSW 3.2 km/h 8 km/h 52 % 0 mm
20:40 24.1 °C 13.9 °C 1018.2 hPa South 1.6 km/h 8 km/h 53 % 0 mm
20:45 23.8 °C 13.9 °C 1018.2 hPa South 3.2 km/h 4.8 km/h 54 % 0 mm
20:50 23.8 °C 13.9 °C 1018.2 hPa South 3.2 km/h 6.4 km/h 54 % 0 mm
20:55 23.6 °C 14 °C 1018.5 hPa SSW 3.2 km/h 6.4 km/h 55 % 0 mm
21:00 23.4 °C 14.1 °C 1018.5 hPa SSW 3.2 km/h 6.4 km/h 56 % 0 mm
21:05 23.3 °C 14.6 °C 1018.5 hPa South 6.4 km/h 6.4 km/h 58 % 0 mm
21:10 23.4 °C 14.9 °C 1018.5 hPa South 4.8 km/h 11.3 km/h 59 % 0 mm
21:15 23.4 °C 15.4 °C 1018.5 hPa SSE 6.4 km/h 11.3 km/h 61 % 0 mm
21:20 23.4 °C 15.7 °C 1018.5 hPa South 6.4 km/h 11.3 km/h 62 % 0 mm
21:25 23.4 °C 16.2 °C 1018.5 hPa SSW 3.2 km/h 11.3 km/h 64 % 0 mm
21:30 23.3 °C 16.3 °C 1018.8 hPa SW 4.8 km/h 11.3 km/h 65 % 0 mm
21:35 23.3 °C 16.6 °C 1018.8 hPa SE 4.8 km/h 11.3 km/h 66 % 0 mm
21:40 23.1 °C 16.6 °C 1018.8 hPa SSW 4.8 km/h 11.3 km/h 67 % 0 mm
21:45 23.1 °C 16.9 °C 1018.8 hPa SSW 6.4 km/h 14.5 km/h 68 % 0 mm
21:50 23.1 °C 17.1 °C 1018.8 hPa South 6.4 km/h 14.5 km/h 69 % 0 mm
21:55 23 °C 17 °C 1018.8 hPa SSE 6.4 km/h 14.5 km/h 69 % 0 mm
22:01 22.9 °C 17.1 °C 1018.8 hPa SSW 8 km/h 12.9 km/h 70 % 0 mm
22:06 22.8 °C 17 °C 1018.8 hPa SW 9.7 km/h 14.5 km/h 70 % 0 mm
22:11 22.7 °C 17.4 °C 1019.2 hPa South 4.8 km/h 14.5 km/h 72 % 0 mm
22:16 22.6 °C 17.5 °C 1019.2 hPa SW 8 km/h 14.5 km/h 73 % 0 mm
22:21 22.5 °C 17.6 °C 1019.2 hPa SSW 4.8 km/h 12.9 km/h 74 % 0 mm
22:26 22.4 °C 17.7 °C 1019.2 hPa SW 12.9 km/h 12.9 km/h 75 % 0 mm
22:31 22.3 °C 18.1 °C 1019.2 hPa SSE 11.3 km/h 16.1 km/h 77 % 0 mm
22:36 22.2 °C 18 °C 1019.2 hPa SSW 4.8 km/h 20.9 km/h 77 % 0 mm
22:41 22.1 °C 18.3 °C 1019.2 hPa SSE 12.9 km/h 20.9 km/h 79 % 0 mm
22:46 21.9 °C 18.1 °C 1019.5 hPa South 6.4 km/h 20.9 km/h 79 % 0 mm
22:51 21.8 °C 18.2 °C 1019.5 hPa South 8 km/h 16.1 km/h 80 % 0 mm
22:56 21.7 °C 18.3 °C 1019.5 hPa South 6.4 km/h 16.1 km/h 81 % 0 mm
23:01 21.5 °C 18.3 °C 1019.5 hPa South 8 km/h 12.9 km/h 82 % 0 mm
23:06 21.4 °C 18.4 °C 1019.5 hPa SSW 11.3 km/h 12.9 km/h 83 % 0 mm
23:11 21.3 °C 18.5 °C 1019.5 hPa South 6.4 km/h 11.3 km/h 84 % 0 mm
23:16 21.2 °C 18.4 °C 1019.5 hPa South 4.8 km/h 12.9 km/h 84 % 0 mm
23:21 21 °C 18.4 °C 1019.5 hPa SSW 6.4 km/h 12.9 km/h 85 % 0 mm
23:26 20.9 °C 18.5 °C 1019.5 hPa South 3.2 km/h 12.9 km/h 86 % 0 mm
23:31 20.8 °C 18.6 °C 1019.5 hPa SSE 8 km/h 14.5 km/h 87 % 0 mm
23:32 20.8 °C 18.6 °C 1019.5 hPa SSW 4.8 km/h 14.5 km/h 87 % 0 mm
23:37 20.7 °C 18.5 °C 1019.5 hPa South 6.4 km/h 14.5 km/h 87 % 0 mm
23:42 20.6 °C 18.4 °C 1019.2 hPa SE 3.2 km/h 14.5 km/h 87 % 0 mm
23:47 20.5 °C 18.4 °C 1019.2 hPa SE 3.2 km/h 12.9 km/h 88 % 0 mm
23:52 20.4 °C 18.3 °C 1019.2 hPa South 6.4 km/h 11.3 km/h 88 % 0 mm
23:57 20.4 °C 18.3 °C 1019.2 hPa South 3.2 km/h 12.9 km/h 88 % 0 mm
Spring, Texas: Villages of Bridgestone
Compliments of Weather Underground - 2.75 mb

Script developed by  Jim McMurry - jmcmurry@mwt.net Adapted for the template by  Wim van der Kuil - Leuven-Template.eu

You find our weather info also at:

UK Metoffice

WeatherCloud

Weather Underground

Mid-South Weather Network

AWEKAS

Citizen Weather Observer Program (CWOP)

HAMweather, WeatherForYou, PWS Weather

Equipment we use:

Weather-station
Davis Vantage Vue

Weather-program
Meteohub

Weather-server
Debian 7.9 x86 (Guest)

Provider
DreamHost

Davis Vantage Vue

Meteohub

Debian 7.9 x86 (Guest)

DreamHost